Voltar ao catálogo

KUIPER-00555

AtivoComunicaçõesVLEO
NORAD 69620·PAYLOAD·🇺🇸 United States

Lançado Jun 17, 2026 de Guiana Space Centre

Loading…

Próximas Passagens (próximas 24 horas)

TLE

AtualizadoSource: CelesTrak SupGP

Época: Sep 14, 2026, 21:58 UTC

1 69620C 26140AE  26257.91538194  .00002473  00000+0  66819-4 0  2574
2 69620  51.8825 324.3418 0010714 131.3493 267.2354 15.37079954    16

Acompanhe KUIPER-00555 em tempo real com AllMySat

Download on the App Store